,,,PA_Meas_PMT16A,,PR_Meas_QMR101_102,,RH_Meas_QMH101,,SR_Meas_QMS101,,TA_Meas_QMH101,,GenWind,,GenWind,
date,time,status,PA,status,PR,status,RH,status,SR,status,TA,status,DirAvg,status,SpdAvg,
2011-06-23, 00:00:05,VALID,997.473,VALID,0,VALID,62.746,VALID,0.112286,VALID,27.5258,VALID,201,VALID,4.42227,
2011-06-23, 00:01:05,VALID,997.46,VALID,0,VALID,63.1275,VALID,0,VALID,27.5454,VALID,183,VALID,5.27812,
2011-06-23, 00:02:05,VALID,997.378,VALID,0,VALID,63.097,VALID,0,VALID,27.5628,VALID,187,VALID,6.78594,
2011-06-23, 00:03:05,VALID,997.379,VALID,0,VALID,63.2801,VALID,0,VALID,27.604,VALID,177,VALID,4.88164,
2011-06-23, 00:04:05,VALID,997.407,VALID,0,VALID,63.509,VALID,0.112286,VALID,27.5433,VALID,176,VALID,5.41367,
2011-06-23, 00:05:05,VALID,997.379,VALID,0,VALID,63.1046,VALID,0.112286,VALID,27.5454,VALID,186,VALID,6.86211,
2011-06-23, 00:06:05,VALID,997.409,VALID,0,VALID,63.2419,VALID,0,VALID,27.6019,VALID,166,VALID,5.24023,
2011-06-23, 00:07:05,VALID,997.371,VALID,0,VALID,63.3258,VALID,0,VALID,27.5238,VALID,162,VALID,5.54961,
2011-06-23, 00:08:05,VALID,997.365,VALID,0,VALID,63.8675,VALID,0.112286,VALID,27.4652,VALID,165,VALID,4.54609,
2011-06-23, 00:09:05,VALID,997.372,VALID,0,VALID,63.776,VALID,0,VALID,27.4477,VALID,178,VALID,4.55586,
2011-06-23, 00:10:05,VALID,997.352,VALID,0,VALID,63.6005,VALID,0,VALID,27.4868,VALID,174,VALID,4.76719,
2011-06-23, 00:11:05,VALID,997.361,VALID,0,VALID,63.837,VALID,0,VALID,27.5063,VALID,171,VALID,4.15117,
2011-06-23, 00:12:05,VALID,997.32,VALID,0,VALID,63.9896,VALID,0,VALID,27.4477,VALID,179,VALID,5.06445,
2011-06-23, 00:13:05,VALID,997.344,VALID,0,VALID,64.2719,VALID,0,VALID,27.4066,VALID,165,VALID,4.23594,
2011-06-23, 00:14:05,VALID,997.285,VALID,0,VALID,64.394,VALID,0,VALID,27.4282,VALID,177,VALID,3.29766,
2011-06-23, 00:15:05,VALID,997.327,VALID,0,VALID,64.7907,VALID,0,VALID,27.348,VALID,154,VALID,3.37031,
2011-06-23, 00:16:05,VALID,997.33,VALID,0,VALID,64.6305,VALID,0.112286,VALID,27.348,VALID,173,VALID,4.12578,
2011-06-23, 00:17:05,VALID,997.271,VALID,0,VALID,64.1804,VALID,0.112286,VALID,27.4261,VALID,169,VALID,7.29648,
2011-06-23, 00:18:05,VALID,997.262,VALID,0,VALID,64.0201,VALID,0,VALID,27.4868,VALID,169,VALID,8.24102,
2011-06-23, 00:19:05,VALID,997.231,VALID,0,VALID,63.9133,VALID,0,VALID,27.5649,VALID,181,VALID,5.31992,
2011-06-23, 00:20:05,VALID,997.218,VALID,0,VALID,63.921,VALID,0.112286,VALID,27.5433,VALID,168,VALID,5.71719,
2011-06-23, 00:21:05,VALID,997.216,VALID,0,VALID,64.3177,VALID,0.112286,VALID,27.5042,VALID,173,VALID,4.23086,
2011-06-23, 00:22:05,VALID,997.208,VALID,0,VALID,64.7221,VALID,0,VALID,27.4652,VALID,169,VALID,4.66563,
2011-06-23, 00:23:05,VALID,997.139,VALID,0,VALID,64.7068,VALID,0.112286,VALID,27.5042,VALID,183,VALID,5.86758,
2011-06-23, 00:24:05,VALID,997.186,VALID,0,VALID,64.9052,VALID,0,VALID,27.5042,VALID,177,VALID,5.58789,
2011-06-23, 00:25:05,VALID,997.213,VALID,0,VALID,65.1035,VALID,0,VALID,27.4456,VALID,177,VALID,5.1125,
2011-06-23, 00:26:05,VALID,997.203,VALID,0,VALID,65.3095,VALID,0,VALID,27.4456,VALID,191,VALID,5.06563,
2011-06-23, 00:27:05,VALID,997.156,VALID,0,VALID,65.3172,VALID,0,VALID,27.4672,VALID,173,VALID,5.67656,
2011-06-23, 00:28:05,VALID,997.167,VALID,0,VALID,65.5308,VALID,0,VALID,27.4652,VALID,170,VALID,4.08008,
2011-06-23, 00:29:05,VALID,997.141,VALID,0,VALID,65.2867,VALID,0,VALID,27.4261,VALID,175,VALID,4.40078,
2011-06-23, 00:30:05,VALID,997.116,VALID,0,VALID,65.8436,VALID,0.112286,VALID,27.4066,VALID,183,VALID,4.06992,
2011-06-23, 00:31:05,VALID,997.12,VALID,0,VALID,66.0191,VALID,0,VALID,27.35,VALID,194,VALID,4.03984,
2011-06-23, 00:32:05,VALID,997.089,VALID,0,VALID,65.7597,VALID,0,VALID,27.3891,VALID,169,VALID,4.21641,
2011-06-23, 00:33:05,VALID,997.084,VALID,0,VALID,65.5842,VALID,0,VALID,27.3891,VALID,189,VALID,4.54883,
2011-06-23, 00:34:05,VALID,997.126,VALID,0,VALID,65.8436,VALID,0,VALID,27.3675,VALID,179,VALID,4.87266,
2011-06-23, 00:35:05,VALID,997.108,VALID,0,VALID,65.4621,VALID,0,VALID,27.3891,VALID,179,VALID,5.67617,
2011-06-23, 00:36:05,VALID,997.135,VALID,0,VALID,65.5995,VALID,0,VALID,27.4086,VALID,180,VALID,4.60039,
2011-06-23, 00:37:05,VALID,997.062,VALID,0,VALID,64.8899,VALID,0,VALID,27.4477,VALID,178,VALID,4.44297,
2011-06-23, 00:38:05,VALID,997.097,VALID,0,VALID,65.3324,VALID,0,VALID,27.4066,VALID,184,VALID,4.10156,
2011-06-23, 00:39:05,VALID,997.13,VALID,0,VALID,65.1417,VALID,0,VALID,27.4672,VALID,188,VALID,5.09727,
2011-06-23, 00:40:05,VALID,997.105,VALID,0,VALID,65.1264,VALID,0,VALID,27.4672,VALID,189,VALID,3.84375,
2011-06-23, 00:41:05,VALID,997.083,VALID,0,VALID,65.6681,VALID,0,VALID,27.387,VALID,195,VALID,3.5793,
2011-06-23, 00:42:05,VALID,997.077,VALID,0,VALID,65.7444,VALID,0,VALID,27.3891,VALID,199,VALID,2.96445,
2011-06-23, 00:43:05,VALID,997.024,VALID,0,VALID,65.6681,VALID,0,VALID,27.3305,VALID,193,VALID,3.03711,
2011-06-23, 00:44:05,VALID,997.013,VALID,0,VALID,66.1641,VALID,0,VALID,27.2915,VALID,181,VALID,3.15703,
2011-06-23, 00:45:05,VALID,996.947,VALID,0,VALID,65.9962,VALID,0,VALID,27.2719,VALID,184,VALID,3.29961,
2011-06-23, 00:46:05,VALID,996.941,VALID,0,VALID,65.9733,VALID,0,VALID,27.2719,VALID,161,VALID,4.86484,
2011-06-23, 00:47:05,VALID,996.976,VALID,0,VALID,66.0115,VALID,0,VALID,27.2524,VALID,177,VALID,3.84023,
2011-06-23, 00:48:05,VALID,996.971,VALID,0,VALID,66.0191,VALID,0,VALID,27.2503,VALID,172,VALID,4.04219,
2011-06-23, 00:49:05,VALID,996.991,VALID,0,VALID,65.4545,VALID,0,VALID,27.2719,VALID,173,VALID,5.72148,
2011-06-23, 00:50:05,VALID,996.928,VALID,0,VALID,65.3858,VALID,0,VALID,27.3696,VALID,175,VALID,5.38047,
2011-06-23, 00:51:05,VALID,996.927,VALID,0,VALID,65.4621,VALID,0,VALID,27.35,VALID,174,VALID,3.50586,
2011-06-23, 00:52:05,VALID,996.879,VALID,0,VALID,64.7755,VALID,0,VALID,27.35,VALID,176,VALID,3.74375,
2011-06-23, 00:53:05,VALID,996.927,VALID,0,VALID,64.8289,VALID,0,VALID,27.3891,VALID,156,VALID,4.09766,
2011-06-23, 00:54:05,VALID,996.901,VALID,0,VALID,65.218,VALID,0,VALID,27.3696,VALID,191,VALID,3.10195,
2011-06-23, 00:55:05,VALID,996.917,VALID,0,VALID,65.4011,VALID,0,VALID,27.3089,VALID,176,VALID,3.4832,
2011-06-23, 00:56:05,VALID,996.921,VALID,0,VALID,65.4087,VALID,0,VALID,27.3089,VALID,185,VALID,3.55,
2011-06-23, 00:57:05,VALID,996.871,VALID,0,VALID,64.7831,VALID,0,VALID,27.35,VALID,166,VALID,6.1793,
2011-06-23, 00:58:05,VALID,996.936,VALID,0,VALID,65.1798,VALID,0,VALID,27.3891,VALID,175,VALID,4.34336,
2011-06-23, 00:59:05,VALID,996.889,VALID,0,VALID,64.6839,VALID,0,VALID,27.4066,VALID,186,VALID,5.85703,
2011-06-23, 01:00:05,VALID,996.903,VALID,0,VALID,64.6229,VALID,0,VALID,27.4672,VALID,173,VALID,5.07344,
2011-06-23, 01:01:05,VALID,996.901,VALID,0,VALID,64.6763,VALID,0,VALID,27.4672,VALID,178,VALID,4.475,
2011-06-23, 01:02:05,VALID,996.902,VALID,0,VALID,65.0349,VALID,0,VALID,27.4261,VALID,186,VALID,4.62461,
2011-06-23, 01:03:05,VALID,996.895,VALID,0,VALID,65.1188,VALID,0,VALID,27.4282,VALID,189,VALID,4.0043,
2011-06-23, 01:04:05,VALID,996.899,VALID,0,VALID,65.1264,VALID,0,VALID,27.4282,VALID,179,VALID,4.55859,
2011-06-23, 01:05:05,VALID,996.861,VALID,0,VALID,65.3324,VALID,0,VALID,27.4477,VALID,179,VALID,6.15742,
2011-06-23, 01:06:05,VALID,996.882,VALID,0,VALID,65.6834,VALID,0,VALID,27.4282,VALID,186,VALID,4.35547,
2011-06-23, 01:07:05,VALID,996.863,VALID,0,VALID,65.9733,VALID,0,VALID,27.3696,VALID,203,VALID,2.81836,
2011-06-23, 01:08:05,VALID,996.862,VALID,0,VALID,66.187,VALID,0,VALID,27.311,VALID,191,VALID,2.57969,
2011-06-23, 01:09:05,VALID,996.851,VALID,0,VALID,66.2327,VALID,0,VALID,27.2719,VALID,191,VALID,2.83828,
2011-06-23, 01:10:05,VALID,996.834,VALID,0,VALID,66.1488,VALID,0,VALID,27.2308,VALID,197,VALID,3.12422,
2011-06-23, 01:11:05,VALID,996.798,VALID,0,VALID,66.3472,VALID,0,VALID,27.2329,VALID,195,VALID,2.93672,
2011-06-23, 01:12:05,VALID,996.799,VALID,0,VALID,66.5074,VALID,0,VALID,27.1743,VALID,189,VALID,2.68359,
2011-06-23, 01:13:05,VALID,996.807,VALID,0,VALID,66.5608,VALID,0,VALID,27.1722,VALID,183,VALID,3.47578,
2011-06-23, 01:14:05,VALID,996.815,VALID,0,VALID,66.5074,VALID,0,VALID,27.2133,VALID,196,VALID,2.14844,
2011-06-23, 01:15:05,VALID,996.792,VALID,0,VALID,66.4387,VALID,0,VALID,27.1938,VALID,197,VALID,1.56602,
2011-06-23, 01:16:05,VALID,996.8,VALID,0,VALID,66.7363,VALID,0,VALID,27.1527,VALID,200,VALID,1.93047,
2011-06-23, 01:17:05,VALID,996.826,VALID,0,VALID,66.9347,VALID,0,VALID,27.1352,VALID,203,VALID,2.98047,
2011-06-23, 01:18:05,VALID,996.8,VALID,0,VALID,66.7515,VALID,0,VALID,27.1547,VALID,191,VALID,3.18711,
2011-06-23, 01:19:05,VALID,996.784,VALID,0,VALID,66.9423,VALID,0,VALID,27.1547,VALID,182,VALID,2.49883,
2011-06-23, 01:20:05,VALID,996.779,VALID,0,VALID,66.8889,VALID,0,VALID,27.1352,VALID,203,VALID,3.08242,
2011-06-23, 01:21:05,VALID,996.766,VALID,0,VALID,66.9194,VALID,0,VALID,27.1157,VALID,198,VALID,3.27969,
2011-06-23, 01:22:05,VALID,996.776,VALID,0,VALID,66.8584,VALID,0.112286,VALID,27.1331,VALID,195,VALID,2.82617,
2011-06-23, 01:23:05,VALID,996.742,VALID,0,VALID,67.0262,VALID,0,VALID,27.1331,VALID,195,VALID,2.5707,
2011-06-23, 01:24:05,VALID,996.72,VALID,0,VALID,67.3085,VALID,0,VALID,27.1136,VALID,182,VALID,2.60586,
2011-06-23, 01:25:05,VALID,996.689,VALID,0,VALID,67.4001,VALID,0,VALID,27.0766,VALID,187,VALID,2.80312,
2011-06-23, 01:26:05,VALID,996.678,VALID,0,VALID,67.5755,VALID,0,VALID,27.0571,VALID,200,VALID,1.73203,
2011-06-23, 01:27:05,VALID,996.682,VALID,0,VALID,67.2475,VALID,0,VALID,27.018,VALID,186,VALID,2.95664,
2011-06-23, 01:28:05,VALID,996.653,VALID,0,VALID,66.6829,VALID,0,VALID,27.0571,VALID,200,VALID,2.87695,
2011-06-23, 01:29:05,VALID,996.633,VALID,0,VALID,66.3548,VALID,0,VALID,27.0961,VALID,189,VALID,2.66289,
2011-06-23, 01:30:05,VALID,996.624,VALID,0,VALID,66.4311,VALID,0,VALID,27.0961,VALID,185,VALID,3.19375,
2011-06-23, 01:31:05,VALID,996.606,VALID,0,VALID,65.6224,VALID,0,VALID,27.0961,VALID,198,VALID,2.90508,
2011-06-23, 01:32:05,VALID,996.566,VALID,0,VALID,64.9891,VALID,0,VALID,27.0961,VALID,188,VALID,3.90898,
2011-06-23, 01:33:05,VALID,996.553,VALID,0,VALID,65.1875,VALID,0,VALID,27.1157,VALID,198,VALID,3.00273,
2011-06-23, 01:34:05,VALID,996.566,VALID,0,VALID,65.0578,VALID,0,VALID,27.1352,VALID,183,VALID,4.03281,
2011-06-23, 01:35:05,VALID,996.541,VALID,0,VALID,63.013,VALID,0,VALID,27.1157,VALID,188,VALID,4.51367,
2011-06-23, 01:36:05,VALID,996.565,VALID,0,VALID,63.1504,VALID,0,VALID,27.2329,VALID,183,VALID,4.44258,
2011-06-23, 01:37:05,VALID,996.553,VALID,0,VALID,63.6234,VALID,0,VALID,27.2329,VALID,220,VALID,2.88359,
2011-06-23, 01:38:05,VALID,996.492,VALID,0,VALID,64.0583,VALID,0,VALID,27.1938,VALID,232,VALID,2.30859,
2011-06-23, 01:39:05,VALID,996.503,VALID,0,VALID,64.5466,VALID,0,VALID,27.1547,VALID,198,VALID,1.91719,
2011-06-23, 01:40:05,VALID,996.512,VALID,0,VALID,64.3711,VALID,0,VALID,27.1157,VALID,195,VALID,2.84922,
2011-06-23, 01:41:05,VALID,996.509,VALID,0,VALID,64.8365,VALID,0,VALID,27.0766,VALID,203,VALID,2.66211,
2011-06-23, 01:42:05,VALID,996.498,VALID,0,VALID,65.218,VALID,0,VALID,27.0571,VALID,217,VALID,2.07266,
2011-06-23, 01:43:05,VALID,996.478,VALID,0,VALID,64.8365,VALID,0,VALID,26.9769,VALID,233,VALID,2.97813,
2011-06-23, 01:44:05,VALID,996.472,VALID,0,VALID,64.4321,VALID,0,VALID,26.9964,VALID,217,VALID,3.20469,
2011-06-23, 01:45:05,VALID,996.444,VALID,0,VALID,63.9057,VALID,0,VALID,27.016,VALID,218,VALID,2.85469,
2011-06-23, 01:46:05,VALID,996.519,VALID,0,VALID,65.1112,VALID,0,VALID,27.0375,VALID,223,VALID,1.78867,
2011-06-23, 01:47:05,VALID,996.546,VALID,0,VALID,65.9352,VALID,0,VALID,26.9183,VALID,212,VALID,2.07227,
2011-06-23, 01:48:05,VALID,996.576,VALID,0,VALID,66.2785,VALID,0,VALID,26.7816,VALID,215,VALID,1.80273,
2011-06-23, 01:49:05,VALID,996.553,VALID,0,VALID,66.5532,VALID,0,VALID,26.7446,VALID,233,VALID,1.58711,
2011-06-23, 01:50:05,VALID,996.527,VALID,0,VALID,66.9194,VALID,0,VALID,26.686,VALID,245,VALID,1.49336,
2011-06-23, 01:51:05,VALID,996.555,VALID,0,VALID,67.2475,VALID,0,VALID,26.6059,VALID,221,VALID,1.44336,
2011-06-23, 01:52:05,VALID,996.529,VALID,0,VALID,65.9657,VALID,0,VALID,26.6469,VALID,182,VALID,3.29219,
2011-06-23, 01:53:05,VALID,996.537,VALID,0,VALID,66.0725,VALID,0,VALID,26.686,VALID,208,VALID,1.82734,
2011-06-23, 01:54:05,VALID,996.585,VALID,0,VALID,66.0878,VALID,0,VALID,26.6665,VALID,213,VALID,1.94375,
2011-06-23, 01:55:04,VALID,996.545,VALID,0,VALID,66.0115,VALID,0,VALID,26.686,VALID,198,VALID,2.15,
2011-06-23, 01:56:04,VALID,996.539,VALID,0,VALID,65.7292,VALID,0,VALID,26.7035,VALID,198,VALID,2.28086,
2011-06-23, 01:57:04,VALID,996.557,VALID,0,VALID,65.981,VALID,0,VALID,26.7446,VALID,208,VALID,1.59727,
2011-06-23, 01:58:04,VALID,996.53,VALID,0,VALID,66.515,VALID,0,VALID,26.6644,VALID,225,VALID,1.60508,
2011-06-23, 01:59:04,VALID,996.546,VALID,0,VALID,66.5455,VALID,0,VALID,26.6254,VALID,200,VALID,1.23789,
2011-06-23, 02:00:04,VALID,996.548,VALID,0,VALID,66.8736,VALID,0,VALID,26.5863,VALID,226,VALID,1.97656,
2011-06-23, 02:01:04,VALID,996.538,VALID,0,VALID,66.9652,VALID,0,VALID,26.5708,VALID,228,VALID,2.12969,
2011-06-23, 02:02:04,VALID,996.525,VALID,0,VALID,66.7439,VALID,0,VALID,26.5493,VALID,233,VALID,2.63555,
2011-06-23, 02:03:04,VALID,996.524,VALID,0,VALID,67.3695,VALID,0,VALID,26.5688,VALID,235,VALID,1.78789,
2011-06-23, 02:04:04,VALID,996.53,VALID,0,VALID,67.9875,VALID,0,VALID,26.4927,VALID,227,VALID,1.18359,
2011-06-23, 02:05:04,VALID,996.559,VALID,0,VALID,68.2775,VALID,0,VALID,26.3736,VALID,224,VALID,1.41562,
2011-06-23, 02:06:04,VALID,996.544,VALID,0,VALID,68.308,VALID,0,VALID,26.317,VALID,230,VALID,1.87656,
2011-06-23, 02:07:04,VALID,996.562,VALID,0,VALID,68.6513,VALID,0,VALID,26.2954,VALID,243,VALID,1.43281,
2011-06-23, 02:08:04,VALID,996.543,VALID,0,VALID,68.9794,VALID,0,VALID,26.2974,VALID,233,VALID,1.49375,
2011-06-23, 02:09:04,VALID,996.536,VALID,0,VALID,68.9718,VALID,0,VALID,26.2584,VALID,235,VALID,2.52187,
2011-06-23, 02:10:04,VALID,996.516,VALID,0,VALID,69.0557,VALID,0,VALID,26.2564,VALID,217,VALID,2.15156,
2011-06-23, 02:11:04,VALID,996.55,VALID,0,VALID,69.1778,VALID,0,VALID,26.2369,VALID,211,VALID,2.13984,
2011-06-23, 02:12:04,VALID,996.564,VALID,0,VALID,69.1472,VALID,0,VALID,26.1978,VALID,223,VALID,2.25273,
2011-06-23, 02:13:04,VALID,996.543,VALID,0,VALID,68.9489,VALID,0,VALID,26.2584,VALID,231,VALID,2.53086,
2011-06-23, 02:14:04,VALID,996.519,VALID,0,VALID,69.071,VALID,0,VALID,26.2974,VALID,219,VALID,2.08164,
2011-06-23, 02:15:04,VALID,996.504,VALID,0,VALID,69.1015,VALID,0,VALID,26.2779,VALID,222,VALID,1.88867,
2011-06-23, 02:16:04,VALID,996.537,VALID,0,VALID,69.1167,VALID,0,VALID,26.2954,VALID,229,VALID,2.36445,
2011-06-23, 02:17:04,VALID,996.534,VALID,0,VALID,69.1167,VALID,0,VALID,26.2759,VALID,233,VALID,2.26367,
2011-06-23, 02:18:04,VALID,996.548,VALID,0,VALID,69.071,VALID,0,VALID,26.2759,VALID,227,VALID,1.86563,
2011-06-23, 02:19:04,VALID,996.6,VALID,0,VALID,68.9412,VALID,0,VALID,26.2544,VALID,195,VALID,2.10898,
2011-06-23, 02:20:04,VALID,996.57,VALID,0,VALID,67.4764,VALID,0,VALID,26.3931,VALID,211,VALID,2.25742,
2011-06-23, 02:21:04,VALID,996.578,VALID,0,VALID,67.545,VALID,0,VALID,26.4106,VALID,214,VALID,1.58906,
2011-06-23, 02:22:04,VALID,996.557,VALID,0,VALID,67.4993,VALID,0,VALID,26.4321,VALID,206,VALID,1.56797,
2011-06-23, 02:23:04,VALID,996.561,VALID,0,VALID,67.4687,VALID,0,VALID,26.4321,VALID,216,VALID,2.2832,
2011-06-23, 02:24:04,VALID,996.577,VALID,0,VALID,67.3772,VALID,0,VALID,26.4126,VALID,195,VALID,1.7957,
2011-06-23, 02:25:04,VALID,996.615,VALID,0,VALID,66.9728,VALID,0,VALID,26.4321,VALID,212,VALID,2.30469,
2011-06-23, 02:26:04,VALID,996.601,VALID,0,VALID,67.2398,VALID,0,VALID,26.4517,VALID,224,VALID,1.96758,
2011-06-23, 02:27:04,VALID,996.602,VALID,0,VALID,67.7358,VALID,0,VALID,26.3715,VALID,218,VALID,1.24219,
2011-06-23, 02:28:04,VALID,996.581,VALID,0,VALID,67.7434,VALID,0,VALID,26.3345,VALID,207,VALID,2.05039,
2011-06-23, 02:29:04,VALID,996.6,VALID,0,VALID,67.5679,VALID,0.112286,VALID,26.354,VALID,232,VALID,2.95391,
2011-06-23, 02:30:04,VALID,996.554,VALID,0,VALID,67.6442,VALID,0,VALID,26.3736,VALID,228,VALID,1.90352,
2011-06-23, 02:31:04,VALID,996.541,VALID,0,VALID,68.0181,VALID,0,VALID,26.2564,VALID,223,VALID,1.58516,
2011-06-23, 02:32:04,VALID,996.557,VALID,0,VALID,67.835,VALID,0,VALID,26.2974,VALID,221,VALID,1.92891,
2011-06-23, 02:33:04,VALID,996.556,VALID,0,VALID,67.9189,VALID,0,VALID,26.2759,VALID,229,VALID,1.84063,
2011-06-23, 02:34:04,VALID,996.578,VALID,0,VALID,68.2698,VALID,0,VALID,26.2779,VALID,235,VALID,1.13359,
2011-06-23, 02:35:04,VALID,996.565,VALID,0,VALID,68.2317,VALID,0,VALID,26.2193,VALID,219,VALID,1.50742,
2011-06-23, 02:36:04,VALID,996.557,VALID,0,VALID,68.2241,VALID,0,VALID,26.1998,VALID,237,VALID,1.88867,
2011-06-23, 02:37:04,VALID,996.566,VALID,0,VALID,68.6055,VALID,0,VALID,26.1998,VALID,237,VALID,1.51914,
2011-06-23, 02:38:04,VALID,996.576,VALID,0,VALID,68.5674,VALID,0,VALID,26.1197,VALID,231,VALID,1.76094,
2011-06-23, 02:39:04,VALID,996.604,VALID,0,VALID,68.4148,VALID,0,VALID,26.1607,VALID,229,VALID,1.32969,
2011-06-23, 02:40:04,VALID,996.559,VALID,0,VALID,68.1935,VALID,0,VALID,26.1412,VALID,248,VALID,2.34297,
2011-06-23, 02:41:04,VALID,996.599,VALID,0,VALID,68.2241,VALID,0,VALID,26.1392,VALID,219,VALID,2.55039,
2011-06-23, 02:42:04,VALID,996.583,VALID,0,VALID,67.3085,VALID,0,VALID,26.1803,VALID,230,VALID,2.75312,
2011-06-23, 02:43:04,VALID,996.554,VALID,0,VALID,67.1788,VALID,0,VALID,26.2974,VALID,220,VALID,1.62227,
2011-06-23, 02:44:04,VALID,996.591,VALID,0,VALID,67.2704,VALID,0,VALID,26.2974,VALID,236,VALID,2.23047,
2011-06-23, 02:45:04,VALID,996.554,VALID,0,VALID,67.6824,VALID,0,VALID,26.2564,VALID,231,VALID,1.70625,
2011-06-23, 02:46:04,VALID,996.533,VALID,0,VALID,68.0104,VALID,0,VALID,26.2193,VALID,228,VALID,2.20898,
2011-06-23, 02:47:04,VALID,996.533,VALID,0,VALID,68.1096,VALID,0,VALID,26.1803,VALID,214,VALID,1.60586,
2011-06-23, 02:48:04,VALID,996.535,VALID,0,VALID,68.1096,VALID,0,VALID,26.1607,VALID,222,VALID,1.38828,
2011-06-23, 02:49:04,VALID,996.54,VALID,0,VALID,68.6742,VALID,0,VALID,26.1002,VALID,239,VALID,1.22031,
2011-06-23, 02:50:04,VALID,996.533,VALID,0,VALID,68.4758,VALID,0,VALID,26.0826,VALID,222,VALID,2.21797,
2011-06-23, 02:51:04,VALID,996.531,VALID,0,VALID,68.2088,VALID,0,VALID,26.1022,VALID,231,VALID,1.71719,
2011-06-23, 02:52:04,VALID,996.529,VALID,0,VALID,68.3538,VALID,0,VALID,26.1022,VALID,225,VALID,1.275,
2011-06-23, 02:53:04,VALID,996.52,VALID,0,VALID,68.3385,VALID,0,VALID,26.0826,VALID,229,VALID,1.69102,
2011-06-23, 02:54:04,VALID,996.514,VALID,0,VALID,68.4301,VALID,0,VALID,26.0436,VALID,233,VALID,1.22109,
2011-06-23, 02:55:04,VALID,996.555,VALID,0,VALID,68.3843,VALID,0,VALID,26.0416,VALID,231,VALID,1.33828,
2011-06-23, 02:56:04,VALID,996.591,VALID,0,VALID,68.3461,VALID,0,VALID,26.0631,VALID,218,VALID,1.48555,
2011-06-23, 02:57:04,VALID,996.598,VALID,0,VALID,68.4301,VALID,0,VALID,26.0846,VALID,225,VALID,1.67734,
2011-06-23, 02:58:04,VALID,996.6,VALID,0,VALID,68.6895,VALID,0,VALID,26.0241,VALID,245,VALID,1.63594,
2011-06-23, 02:59:04,VALID,996.622,VALID,0,VALID,68.9718,VALID,0,VALID,26.0045,VALID,245,VALID,1.95273,
2011-06-23, 03:00:04,VALID,996.638,VALID,0,VALID,68.9336,VALID,0,VALID,25.9655,VALID,223,VALID,1.1918,
2011-06-23, 03:01:04,VALID,996.605,VALID,0,VALID,69.1091,VALID,0,VALID,25.9049,VALID,227,VALID,1.05547,
2011-06-23, 03:02:04,VALID,996.59,VALID,0,VALID,69.193,VALID,0,VALID,25.8854,VALID,252,VALID,1.83281,
2011-06-23, 03:03:04,VALID,996.65,VALID,0,VALID,69.2769,VALID,0,VALID,25.8679,VALID,233,VALID,1.28555,
2011-06-23, 03:04:04,VALID,996.654,VALID,0,VALID,69.1167,VALID,0,VALID,25.8874,VALID,235,VALID,2.02617,
2011-06-23, 03:05:04,VALID,996.66,VALID,0,VALID,69.2846,VALID,0,VALID,25.8874,VALID,219,VALID,1.82148,
2011-06-23, 03:06:04,VALID,996.659,VALID,0,VALID,68.9489,VALID,0,VALID,25.9069,VALID,212,VALID,1.80859,
2011-06-23, 03:07:04,VALID,996.684,VALID,0,VALID,68.987,VALID,0,VALID,25.9655,VALID,235,VALID,0.957812,
2011-06-23, 03:08:04,VALID,996.679,VALID,0,VALID,68.8344,VALID,0,VALID,25.985,VALID,243,VALID,1.53359,
2011-06-23, 03:09:04,VALID,996.719,VALID,0,VALID,68.6742,VALID,0,VALID,26.0241,VALID,250,VALID,1.62461,
2011-06-23, 03:10:04,VALID,996.714,VALID,0,VALID,68.6513,VALID,0,VALID,26.0241,VALID,248,VALID,1.60664,
2011-06-23, 03:11:04,VALID,996.742,VALID,0,VALID,68.575,VALID,0,VALID,26.0221,VALID,219,VALID,1.36914,
2011-06-23, 03:12:04,VALID,996.733,VALID,0,VALID,68.6208,VALID,0,VALID,26.0631,VALID,234,VALID,1.48945,
2011-06-23, 03:13:04,VALID,996.754,VALID,0,VALID,68.6361,VALID,0,VALID,26.0631,VALID,238,VALID,1.62383,
2011-06-23, 03:14:04,VALID,996.753,VALID,0,VALID,68.7734,VALID,0,VALID,26.0436,VALID,225,VALID,1.69766,
2011-06-23, 03:15:04,VALID,996.772,VALID,0,VALID,69.0862,VALID,0,VALID,25.985,VALID,219,VALID,0.989453,
2011-06-23, 03:16:04,VALID,996.779,VALID,0,VALID,69.1015,VALID,0,VALID,25.983,VALID,225,VALID,1.67305,
2011-06-23, 03:17:04,VALID,996.788,VALID,0,VALID,69.3227,VALID,0,VALID,26.0436,VALID,207,VALID,2.05898,
2011-06-23, 03:18:04,VALID,996.78,VALID,0,VALID,68.9641,VALID,0,VALID,26.0631,VALID,229,VALID,1.97578,
2011-06-23, 03:19:04,VALID,996.797,VALID,0,VALID,68.7505,VALID,0,VALID,26.1022,VALID,213,VALID,1.29062,
2011-06-23, 03:20:04,VALID,996.813,VALID,0,VALID,68.9641,VALID,0,VALID,26.1217,VALID,211,VALID,1.24492,
2011-06-23, 03:21:04,VALID,996.801,VALID,0,VALID,68.6361,VALID,0,VALID,26.1022,VALID,208,VALID,1.33008,
2011-06-23, 03:22:04,VALID,996.796,VALID,0,VALID,68.6895,VALID,0,VALID,26.1002,VALID,222,VALID,1.74648,
2011-06-23, 03:23:04,VALID,996.84,VALID,0,VALID,68.8039,VALID,0,VALID,26.1217,VALID,237,VALID,1.24844,
2011-06-23, 03:24:04,VALID,996.828,VALID,0,VALID,68.9947,VALID,0,VALID,26.1217,VALID,243,VALID,0.658203,
2011-06-23, 03:25:04,VALID,996.864,VALID,0,VALID,69.0557,VALID,0,VALID,26.0807,VALID,212,VALID,0.951172,
2011-06-23, 03:26:04,VALID,996.851,VALID,0,VALID,69.1244,VALID,0,VALID,26.0826,VALID,217,VALID,1.45938,
2011-06-23, 03:27:04,VALID,996.834,VALID,0,VALID,69.071,VALID,0,VALID,26.1217,VALID,219,VALID,1.49258,
2011-06-23, 03:28:04,VALID,996.831,VALID,0,VALID,69.2388,VALID,0,VALID,26.1412,VALID,206,VALID,1.29648,
2011-06-23, 03:29:04,VALID,996.834,VALID,0,VALID,68.865,VALID,0,VALID,26.1392,VALID,204,VALID,1.21836,
2011-06-23, 03:30:04,VALID,996.804,VALID,0,VALID,69.132,VALID,0,VALID,26.1803,VALID,230,VALID,1.22148,
2011-06-23, 03:31:04,VALID,996.832,VALID,0,VALID,69.2693,VALID,0,VALID,26.1392,VALID,238,VALID,0.926562,
2011-06-23, 03:32:04,VALID,996.817,VALID,0,VALID,69.1015,VALID,0,VALID,26.1803,VALID,229,VALID,1.55078,
2011-06-23, 03:33:04,VALID,996.822,VALID,0,VALID,69.2922,VALID,0,VALID,26.1588,VALID,216,VALID,1.68438,
2011-06-23, 03:34:04,VALID,996.827,VALID,0,VALID,69.0938,VALID,0,VALID,26.1978,VALID,226,VALID,1.02578,
2011-06-23, 03:35:04,VALID,996.818,VALID,0,VALID,69.1015,VALID,0,VALID,26.2389,VALID,225,VALID,1.36836,
2011-06-23, 03:36:04,VALID,996.841,VALID,0,VALID,69.2541,VALID,0,VALID,26.1998,VALID,241,VALID,1.54258,
2011-06-23, 03:37:04,VALID,996.81,VALID,0,VALID,69.3761,VALID,0,VALID,26.1588,VALID,238,VALID,2.12188,
2011-06-23, 03:38:04,VALID,996.796,VALID,0,VALID,69.5058,VALID,0,VALID,26.2193,VALID,253,VALID,1.40977,
2011-06-23, 03:39:04,VALID,996.801,VALID,0,VALID,69.4982,VALID,0,VALID,26.1783,VALID,241,VALID,1.19648,
2011-06-23, 03:40:04,VALID,996.833,VALID,0,VALID,69.6737,VALID,0,VALID,26.1803,VALID,245,VALID,1.07266,
2011-06-23, 03:41:04,VALID,996.829,VALID,0,VALID,69.8721,VALID,0,VALID,26.1197,VALID,236,VALID,1.05039,
2011-06-23, 03:42:04,VALID,996.819,VALID,0,VALID,70.3069,VALID,0,VALID,26.1022,VALID,228,VALID,1.18594,
2011-06-23, 03:43:04,VALID,996.818,VALID,0,VALID,70.0552,VALID,0,VALID,26.0807,VALID,197,VALID,1.85547,
2011-06-23, 03:44:04,VALID,996.807,VALID,0,VALID,70.2841,VALID,0,VALID,26.0826,VALID,231,VALID,1.27852,
2011-06-23, 03:45:04,VALID,996.812,VALID,0,VALID,70.6045,VALID,0,VALID,26.0241,VALID,234,VALID,1.49258,